Change the Weather History Date:

Tuesday, September 24, 2013

  Actual Average Record
Temperature  
Mean Temperature 58 °F 59 °F  
Max Temperature 72 °F 73 °F 91 °F (1966)
Min Temperature 44 °F 45 °F 27 °F (1985)
Degree Days  
Heating Degree Days 7    
Month to date heating degree days 52  
Cooling Degree Days 0    
Month to date cooling degree days 145  
Growing Degree Days 8 (Base 50)    
Moisture  
Dew Point 41 °F    
Average Humidity 61    
Maximum Humidity 93    
Minimum Humidity 29    
Precipitation  
Precipitation 0.01 in 0.04 in 1.03 in (1959)
Month to date precipitation 4.09 0.94  
Year to date precipitation 15.51 14.43  
Sea Level Pressure  
Sea Level Pressure 29.98 in    
Wind  
Wind Speed 9 mph (SSW)    
Max Wind Speed 21 mph    
Max Gust Speed 35 mph    
Visibility 10 miles    
Events      
T = Trace of Precipitation, MM = Missing Value Source: NWS Daily Summary

Daily Weather History Graph

Daily Weather History Graph

Search for Another Location

Airport or City:

Trip Planner

Search our weather history database for the weather conditions in past years. The results will help you decide how hot, cold, wet, or windy it might be!

Date:

Astronomy

Sep. 24, 2013 Rise Set
Actual Time 6:42 AM MDT 6:46 PM MDT
Civil Twilight 6:15 AM MDT 7:13 PM MDT
Nautical Twilight 5:43 AM MDT 7:44 PM MDT
Astronomical Twilight 5:11 AM MDT 8:16 PM MDT
Moon 10:05 PM MDT (9/24) 11:59 AM MDT (9/24)
Length of Visible Light 12h 57m
Length of Day
12h 03m
Waning Gibbous, 72% of the Moon is Illuminated
Sep 24
Waning Gibbous
Sep 26
Last Quarter
Oct 4
New
Oct 11
First Quarter
Oct 18
Full

Hourly Weather History & Observations

Time (MDT) Temp. Windchill Dew Point Humidity Pressure Visibility Wind Dir Wind Speed Gust Speed Precip Events Conditions
12:53 AM 46.9 °F - 45.0 °F 93% 30.01 in 10.0 mi West 8.1 mph - N/A   Clear
1:53 AM 46.0 °F 41.4 °F 44.1 °F 93% 30.03 in 10.0 mi WSW 9.2 mph - 0.01 in   Clear
2:53 AM 48.9 °F - 46.0 °F 90% 30.01 in 10.0 mi WSW 8.1 mph - N/A   Clear
3:53 AM 48.0 °F - 45.0 °F 89% 30.01 in 10.0 mi SW 8.1 mph - N/A   Clear
4:53 AM 46.0 °F 41.9 °F 43.0 °F 89% 30.02 in 10.0 mi SW 8.1 mph - N/A   Clear
5:53 AM 45.0 °F 40.1 °F 41.0 °F 86% 30.04 in 10.0 mi SW 9.2 mph - N/A   Clear
6:53 AM 45.0 °F 40.1 °F 39.9 °F 82% 30.07 in 10.0 mi WSW 9.2 mph - N/A   Clear
7:53 AM 51.1 °F - 43.0 °F 74% 30.08 in 10.0 mi WSW 6.9 mph - N/A   Clear
8:53 AM 57.0 °F - 45.0 °F 64% 30.09 in 10.0 mi West 5.8 mph - N/A   Clear
9:53 AM 62.1 °F - 44.1 °F 52% 30.08 in 10.0 mi WSW 3.5 mph - N/A   Clear
10:53 AM 66.0 °F - 39.0 °F 37% 30.07 in 10.0 mi NNW 8.1 mph - N/A   Clear
11:53 AM 66.9 °F - 39.0 °F 36% 30.05 in 10.0 mi North 8.1 mph - N/A   Clear
12:53 PM 66.9 °F - 37.9 °F 34% 30.03 in 10.0 mi Calm Calm - N/A   Clear
1:53 PM 69.1 °F - 39.9 °F 35% 29.99 in 10.0 mi South 10.4 mph - N/A   Clear
2:53 PM 71.1 °F - 39.9 °F 32% 29.95 in 10.0 mi SSE 13.8 mph 21.9 mph N/A   Clear
3:53 PM 72.0 °F - 37.0 °F 28% 29.92 in 10.0 mi South 18.4 mph 24.2 mph N/A   Clear
4:53 PM 71.1 °F - 37.0 °F 29% 29.91 in 10.0 mi SSE 15.0 mph 24.2 mph N/A   Clear
5:53 PM 69.1 °F - 37.0 °F 31% 29.91 in 10.0 mi SSE 12.7 mph - N/A   Clear
6:53 PM 61.0 °F - 44.1 °F 54% 29.92 in 10.0 mi SSE 11.5 mph - N/A   Clear
7:53 PM 59.0 °F - 43.0 °F 55% 29.90 in 10.0 mi SE 12.7 mph - N/A   Clear
8:53 PM 57.9 °F - 42.1 °F 56% 29.88 in 10.0 mi SSE 15.0 mph - N/A   Clear
9:53 PM 53.1 °F - 43.0 °F 69% 29.86 in 10.0 mi SSE 9.2 mph - N/A   Clear
10:53 PM 54.0 °F - 39.9 °F 59% 29.84 in 10.0 mi SSE 15.0 mph - N/A   Clear
11:53 PM 55.0 °F - 39.0 °F 55% 29.81 in 10.0 mi SSE 17.3 mph 24.2 mph N/A   Clear